CHINASAT 6C (ZX 6C)

Last updated on Sat Jun 29 2024 00:02:40 GMT+0000 (Coordinated Universal Time)

1 44067U 19012A 24180.61297963 -.00000332 00000+0 00000+0 0 9999 2 44067 0.0326 111.1911 0005076 291.5922 225.4930 1.00272394 19538
UTC large
Height (km)
Speed (km/s)
/
Latitude / Longitude
Inclination (degrees)
Orbital Period (minutes)
Azimuth
Elevation
Range (km)
Doppler Factor

Next 0 passes for location: London (51.5072 / 0.1276)

Sorry there are no passes over London.